FENGYUN 3D

Last updated on Sun Oct 06 2024 00:02:18 GMT+0000 (Coordinated Universal Time)

1 43010U 17072A 24279.55582119 .00000899 00000+0 44849-3 0 9992 2 43010 98.9240 234.9227 0002268 47.4298 312.7069 14.19448051357070
UTC large
Height (km)
Speed (km/s)
/
Latitude / Longitude
Inclination (degrees)
Orbital Period (minutes)
Azimuth
Elevation
Range (km)
Doppler Factor

Next 0 passes for location: London (51.5072 / 0.1276)

Sorry there are no passes over London.